This demonstration page uses our WeatherBlox Daily Observations layout. Learn more.

Left ArrowRight Arrow

39.51506, -84.39828

Hourly Observations for February 2, 2017

Temp ( °F °C ) Dew Point ( °F °C ) Humidity (%) Winds ( mph kmh ) Pressure ( in mb ) Visibility ( mi km ) Precip ( " mm )
12:53 am 00:53 Cloudy 33 0.6 25 -3.9 72 72 WNW 5 7 30.16 1022 10 16 0.00 0.00
1:53 am 01:53 Cloudy 33 0.6 24 -4.4 70 70 W 7 11 30.19 1022 10 16 0.00 0.00
2:53 am 02:53 Cloudy 32 0 23 -5 69 69 WNW 8 13 30.19 1023 10 16 0.00 0.00
3:53 am 03:53 Cloudy 31 -0.6 18 -7.8 59 59 WNW 14 22 30.21 1023 10 16 0.00 0.00
4:53 am 04:53 Clear 29 -1.7 17 -8.3 61 61 WNW 9 15 30.22 1024 10 16 0.00 0.00
5:53 am 05:53 Clear 27 -2.8 17 -8.3 66 66 WNW 10 17 30.24 1024 10 16 0.00 0.00
6:53 am 06:53 Clear 26 -3.3 16 -8.9 66 66 WNW 12 19 30.27 1025 10 16 0.00 0.00
7:53 am 07:53 Sunny 26 -3.3 17 -8.3 69 69 WNW 7 11 30.31 1026 10 16 0.00 0.00
8:53 am 08:53 Sunny 26 -3.3 18 -7.8 71 71 NW 7 11 30.32 1027 10 16 0.00 0.00
9:22 am 09:22 Mostly Cloudy 26 -3.3 18 -7.8 71 71 WNW 12 19 30.36 1028 10 16 0.00 0.00
9:29 am 09:29 Partly Cloudy 26 -3.3 18 -7.8 71 71 WNW 10 17 30.36 1028 10 16 0.00 0.00
9:53 am 09:53 Mostly Sunny 26 -3.3 18 -7.8 71 71 WNW 14 22 30.33 1027 10 16 0.00 0.00
10:27 am 10:27 Mostly Cloudy 27 -2.8 18 -7.8 69 69 NW 12 19 30.39 1029 10 16 0.00 0.00
10:53 am 10:53 Partly Cloudy 27 -2.8 17 -8.3 66 66 WNW 7 11 30.35 1028 10 16 0.00 0.00
11:53 am 11:53 Partly Cloudy 29 -1.7 15 -9.4 56 56 WNW 10 17 30.36 1028 10 16 0.00 0.00
12:53 pm 12:53 Partly Cloudy 30 -1.1 16 -8.9 56 56 WNW 8 13 30.35 1028 10 16 0.00 0.00
1:53 pm 13:53 Sunny 32 0 11 -11.7 41 41 WNW 10 17 30.33 1027 10 16 0.00 0.00
2:53 pm 14:53 Sunny 32 0 11 -11.7 41 41 W 8 13 30.32 1027 10 16 0.00 0.00
3:53 pm 15:53 Sunny 33 0.6 11 -11.7 40 40 W 10 17 30.32 1027 10 16 0.00 0.00
4:53 pm 16:53 Sunny 32 0 11 -11.7 41 41 WNW 12 19 30.34 1028 10 16 0.00 0.00
5:53 pm 17:53 Sunny 30 -1.1 9 -12.8 41 41 WNW 8 13 30.35 1028 10 16 0.00 0.00
6:53 pm 18:53 Clear 28 -2.2 9 -12.8 44 44 WNW 6 9 30.35 1028 10 16 0.00 0.00
7:53 pm 19:53 Clear 27 -2.8 9 -12.8 46 46 WNW 7 11 30.36 1028 10 16 0.00 0.00
8:53 pm 20:53 Clear 26 -3.3 9 -12.8 48 48 WNW 7 11 30.36 1028 10 16 0.00 0.00
9:53 pm 21:53 Clear 25 -3.9 11 -11.7 55 55 NW 5 7 30.36 1028 10 16 0.00 0.00
10:53 pm 22:53 Clear 24 -4.4 12 -11.1 60 60 NW 6 9 30.36 1028 10 16 0.00 0.00
11:53 pm 23:53 Clear 23 -5 12 -11.1 63 63 WNW 3 6 30.36 1028 10 16 0.00 0.00

Powered by AerisWeather